Location: *
(51.4660°N, 0.3360°W)
Time: 09:56:18
(UTC+00:00)

CZ-4C R/B - Pass Details

Date: 19 September 2019
Orbit: 653 x 1349 km, 63.4° (Epoch: 22 October)

Event Time Altitude Azimuth Distance (km) Brightness Sun altitude
Rises 22:55:22 0° 313° (NW) 3,693 6.3 -35.7°
Reaches altitude 10° 22:57:48 10° 316° (NW) 2,838 5.6 -35.9°
Enters shadow 23:03:40 63° 355° (N) 1,270 3.1 -36.1°
